Location: Brompton
(51.4000°N, 0.5333°E)
Time: 08:26:52
(UTC+00:00)

ATLAS 2AS CENTAUR R/B - Pass Details

Date: 11 May 2021
Orbit: 949 x 1263 km, 63.7° (Epoch: 07 May)

Event Time Altitude Azimuth Distance (km) Brightness Sun altitude
Rises 21:21:05 0° 314° (NW) 4,146 7.7 -12.9°
Reaches altitude 10° 21:23:57 10° 316° (NW) 3,143 6.6 -13.1°
Maximum altitude 21:31:30 74° 42° (NE) 1,184 3.0 -13.8°
Enters shadow 21:37:04 17° 125° (SE) 2,435 4.0 -14.3°
